Location: Lac Lasalle
(46.0398°N, 74.1576°W)
Time: 14:08:39
(UTC-05:00)

AO-73 - Pass Details

Date: 18 December 2019
Orbit: 582 x 664 km, 97.6° (Epoch: 28 January)

Event Time Altitude Azimuth Distance (km) Brightness Sun altitude
Rises 17:56:54 0° 184° (S) 2,946 ? -17.2°
Reaches altitude 10° 17:59:14 10° 192° (SSW) 2,029 ? -17.6°
Maximum altitude 18:03:23 40° 262° (W) 939 ? -18.3°
Drops below altitude 10° 18:07:30 10° 333° (NNW) 1,998 ? -19.0°
Sets 18:09:47 0° 341° (NNW) 2,894 ? -19.4°
